Language selection

My Weather Profile Weather Topics  | 

East Labrador Sea: Past 24 Hour Conditions

 

Mary's Harbour

08:30 AM NDT 28 July 2021
Disclaimer

This table is a summary of hourly weather conditions for the past 24 hours.
Please note that these observations might not always be representative of weather conditions over their associated marine area.

Date / Time
(NDT)
Wind(knots) Conditions Visibility(km) Pressure(kPa) Air tempC) Relative humidity(%) Dew pointC) Humidex
28 July 2021
8:30 S 5 Cloudy 16 100.8 18 90 16 *
7:30 SSW 2 Cloudy 16 100.7 16 95 16 *
6:30 S 2 Mainly Sunny 16 100.7 14 99 14 *
5:30 SSE 4 Mist 2 100.7 12 100 12 *
4:30 E 5 Partly Cloudy 16 100.7 13 99 13 *
3:30 calm Cloudy 16 100.7 15 97 14 *
2:30 calm Cloudy 16 100.7 15 96 14 *
1:30 calm Cloudy 16 100.7 15 96 14 *
0:30 SE 3 Cloudy 16 100.8 15 95 14 *
27 July 2021
23:30 ENE 4 Cloudy 16 100.8 15 96 14 *
22:30 S 6 Mostly Cloudy 16 100.9 16 91 15 *
21:30 SSE 7 Cloudy 16 100.9 16 90 15 *
20:30 ESE 6 Cloudy 16 100.9 17 87 15 *
19:30 S 8 gust 15 Cloudy 16 100.9 18 82 15 *
18:30 SSE 8 Cloudy 16 100.9 20 77 16 *
17:30 S 13 Cloudy 16 100.9 20 75 16 24
16:30 SE 13 Cloudy 16 100.9 20 74 15 24
15:30 S 10 gust 16 Mostly Cloudy 16 100.9 23 64 16 27
14:30 SSE 12 gust 17 Mainly Sunny 16 100.9 23 64 16 27
13:30 SE 9 Mainly Sunny 16 101.0 23 68 17 28
12:30 ESE 8 Cloudy 16 101.0 21 70 15 25
11:30 S 7 Cloudy 16 101.1 20 75 15 *
10:30 S 10 Cloudy 16 101.1 18 77 14 *
9:30 SE 7 Sunny 16 101.1 19 74 14 *
8:30 SSE 5 Mostly Cloudy 16 101.1 17 81 14 *

Zoom-in to make a selection

Map of Atlantic - Labrador marine weather areas Kangiqsualujjuaq Airport Cape Kakkiviak Cape Kiglapait Cartwright Airport CFB Goose Bay Hopedale Mary's Harbour Nain Airport Makkovik Airport Saglek Tukialik Bay
Legend:
buoy Buoy
land station Land Station

Atlantic - Labrador Area

Another Region

What we are doing

Date modified: